Tracking 27371 objects as of 7-Jun-2023
HD Live streaming from Space Station
objects crossing your sky now

THOR ABLESTAR R/B

Track THOR ABLESTAR R/B now!
10-day predictions


NORAD ID: 204
Int'l Code: 1961-031C
Perigee: 952.1 km
Apogee: 1,097.8 km
Inclination: 32.4 °
Period: 105.5 minutes
Semi major axis: 7395 km
RCS: 3.5845 m2 (large)
Launch date: November 15, 1961
Source: United States (US)
Launch site: AIR FORCE EASTERN TEST RANGE (AFETR)

Note: This is a ROCKET BODY
Your satellite tracking list
Your tracking list is empty




NASA's NSSDC Master Catalog

Two Line Element Set (TLE):
1 00204U 61031C   23157.47587107  .00000068  00000-0  53199-4 0  9999
2 00204  32.4405 212.4092 0098523 168.8066 191.4773 13.64935288 71726
Source of the keplerian elements: AFSPC